EW9394 Weather Reports


time (UTC)temp
C
wind
direction
speed
KPH
gust
KPH
rain 1hr
cm
rain 24hr
cm
rain mn
cm
humidity
%
barometer
mb
20260504190143 26 203 9.7 12.9 0.00 0.00 0.00 54 1012.2
20260504185639 26 202 6.4 8.0 0.00 0.00 0.00 54 1011.9
20260504185136 26 214 3.2 4.8 0.00 0.00 0.00 54 1011.9
20260504184632 27 146 8.0 9.7 0.00 0.00 0.00 53 1012.0
20260504184127 26 169 8.0 12.9 0.00 0.00 0.00 53 1012.1
20260504183624 26 181 14.5 17.7 0.00 0.00 0.00 53 1012.1
20260504183122 26 207 16.1 20.9 0.00 0.00 0.00 53 1012.3
20260504182620 26 84 6.4 9.7 0.00 0.00 0.00 52 1012.3
20260504182117 26 200 12.9 24.1 0.00 0.00 0.00 52 1012.4
20260504181614 26 200 4.8 9.7 0.00 0.00 0.00 50 1012.7
20260504181111 26 154 9.7 14.5 0.00 0.00 0.00 51 1012.4
20260504180611 26 131 8.0 9.7 0.00 0.00 0.00 51 1012.5
20260504180109 26 190 9.7 14.5 0.00 0.00 0.00 50 1012.3
20260504175606 26 148 20.9 24.1 0.00 0.00 0.00 50 1012.6
20260504175103 25 146 9.7 14.5 0.00 0.00 0.00 50 1012.8
20260504174601 25 134 6.4 14.5 0.00 0.00 0.00 50 1013.1
20260504174057 25 251 4.8 4.8 0.00 0.00 0.00 50 1013.1
20260504173554 25 176 3.2 8.0 0.00 0.00 0.00 51 1013.0
20260504173052 25 189 11.3 20.9 0.00 0.00 0.00 50 1013.1
20260504172547 25 209 11.3 12.9 0.00 0.00 0.00 49 1013.1
20260504172044 24 218 11.3 14.5 0.00 0.00 0.00 52 1012.9
20260504171541 25 148 11.3 12.9 0.00 0.00 0.00 50 1013.2
20260504171038 25 155 8.0 11.3 0.00 0.00 0.00 51 1013.5
20260504170534 24 179 4.8 8.0 0.00 0.00 0.00 52 1013.5
20260504150918 21 169 8.0 9.7 0.00 0.00 0.00 64 1014.7
20260504150414 21 203 11.3 14.5 0.00 0.00 0.00 65 1014.7
20260504140841 20 180 11.3 14.5 0.00 0.00 0.00 70 1015.3
20260504140337 19 189 8.0 9.7 0.00 0.00 0.00 70 1015.1
20260504130806 18 159 12.9 17.7 0.00 0.00 0.00 74 1015.3
20260504130302 17 181 6.4 9.7 0.00 0.00 0.00 74 1015.2
20260504120225 17 191 3.2 3.2 0.00 0.00 0.00 76 1015.0
20260504110653 17 180 1.6 3.2 0.00 0.00 0.00 71 1014.8
20260504110149 17 196 3.2 3.2 0.00 0.00 0.00 72 1014.5
20260504100609 17 182 3.2 3.2 0.00 0.00 0.00 73 1015.1
20260504100108 17 196 1.6 1.6 0.00 0.00 0.00 73 1015.0
20260504082003 17 184 3.2 4.8 0.00 0.00 0.00 67 1015.4
20260504081500 18 159 9.7 16.1 0.00 0.00 0.00 66 1015.6
20260504080955 18 152 9.7 12.9 0.00 0.00 0.00 64 1015.6
20260504080452 18 189 8.0 12.9 0.00 0.00 0.00 64 1015.5
20260504050305 20 163 4.8 4.8 0.00 0.00 0.00 56 1017.4
20260504045757 20 184 4.8 4.8 0.00 0.00 0.00 56 1017.2
20260504045256 20 166 6.4 8.0 0.00 0.00 0.00 56 1017.4
20260504044754 20 204 3.2 3.2 0.00 0.00 0.00 56 1017.6
20260504044252 20 178 3.2 4.8 0.00 0.00 0.00 55 1017.6
20260504043748 20 184 4.8 4.8 0.00 0.00 0.00 55 1017.4
20260504043245 20 183 4.8 4.8 0.00 0.00 0.00 55 1017.4
20260504042743 20 175 8.0 11.3 0.00 0.00 0.00 55 1017.5
20260504042239 20 178 4.8 4.8 0.00 0.00 0.00 55 1017.6
20260504041736 21 181 4.8 4.8 0.00 0.00 0.00 54 1017.7
20260504041232 21 179 4.8 4.8 0.00 0.00 0.00 54 1017.6
20260504040728 21 137 6.4 8.0 0.00 0.00 0.00 54 1017.5
20260504040226 21 168 6.4 8.0 0.00 0.00 0.00 53 1017.6
20260504035722 21 198 9.7 12.9 0.00 0.00 0.00 53 1017.3
20260504035219 21 173 3.2 3.2 0.00 0.00 0.00 53 1017.6
20260504034716 21 182 8.0 11.3 0.00 0.00 0.00 52 1017.7
20260504034214 21 170 9.7 14.5 0.00 0.00 0.00 52 1017.4
20260504033711 21 190 1.6 1.6 0.00 0.00 0.00 51 1017.4
20260504033208 21 172 11.3 12.9 0.00 0.00 0.00 50 1017.5
20260504032705 21 171 9.7 11.3 0.00 0.00 0.00 50 1017.4
20260504032202 21 191 1.6 1.6 0.00 0.00 0.00 51 1017.5
20260504031659 21 196 6.4 11.3 0.00 0.00 0.00 50 1017.2
20260504031155 21 194 4.8 11.3 0.00 0.00 0.00 50 1017.4
20260504030652 21 177 3.2 4.8 0.00 0.00 0.00 50 1017.3
20260504030149 21 194 4.8 4.8 0.00 0.00 0.00 50 1017.3
20260504025646 22 180 3.2 3.2 0.00 0.00 0.00 49 1017.2
20260504025142 22 182 4.8 4.8 0.00 0.00 0.00 49 1017.4
20260504024640 22 163 6.4 8.0 0.00 0.00 0.00 49 1017.3
20260504024136 22 179 4.8 4.8 0.00 0.00 0.00 48 1017.4
20260504023633 22 205 4.8 4.8 0.00 0.00 0.00 48 1017.4
20260504023129 22 179 3.2 3.2 0.00 0.00 0.00 48 1017.4
20260504022626 22 179 4.8 4.8 0.00 0.00 0.00 48 1017.6
20260504022121 22 167 4.8 9.7 0.00 0.00 0.00 47 1017.6
20260504021620 22 195 3.2 4.8 0.00 0.00 0.00 47 1017.4
20260504021116 22 185 3.2 3.2 0.00 0.00 0.00 47 1017.3
20260504020613 22 162 4.8 4.8 0.00 0.00 0.00 46 1017.2
20260504020109 22 194 6.4 9.7 0.00 0.00 0.00 45 1017.1
20260504015606 23 148 3.2 4.8 0.00 0.00 0.00 45 1017.2
20260504015102 23 189 3.2 4.8 0.00 0.00 0.00 45 1017.0
20260504014558 23 160 3.2 4.8 0.00 0.00 0.00 45 1017.3
20260504014055 23 194 8.0 11.3 0.00 0.00 0.00 45 1017.0
20260504013553 23 197 4.8 11.3 0.00 0.00 0.00 44 1017.2
20260504013050 23 176 6.4 9.7 0.00 0.00 0.00 44 1017.1
20260504012547 23 181 4.8 8.0 0.00 0.00 0.00 44 1017.0
20260504012045 23 177 8.0 9.7 0.00 0.00 0.00 43 1017.1
20260504011541 23 185 9.7 12.9 0.00 0.00 0.00 43 1017.1
20260504011037 23 205 4.8 9.7 0.00 0.00 0.00 42 1017.0
20260504010533 24 180 4.8 4.8 0.00 0.00 0.00 42 1017.0
20260504010030 24 201 9.7 11.3 0.00 0.00 0.00 41 1016.9
20260504005526 24 181 9.7 12.9 0.00 0.00 0.00 40 1016.9
20260504005024 24 176 6.4 8.0 0.00 0.00 0.00 40 1017.0
20260504004522 24 197 6.4 9.7 0.00 0.00 0.00 40 1017.0
20260504004019 25 179 3.2 4.8 0.00 0.00 0.00 40 1016.8
20260504003515 25 143 8.0 11.3 0.00 0.00 0.00 40 1016.9
20260504003012 25 174 4.8 8.0 0.00 0.00 0.00 39 1016.8
20260504002509 25 188 3.2 3.2 0.00 0.00 0.00 39 1017.0
20260504002006 25 167 3.2 3.2 0.00 0.00 0.00 39 1016.8
20260504001503 25 144 6.4 8.0 0.00 0.00 0.00 39 1017.0
20260504000959 25 174 4.8 8.0 0.00 0.00 0.00 39 1017.2
20260504000457 25 163 9.7 12.9 0.00 0.00 0.00 39 1017.0
20260503235954 26 211 6.4 9.7 0.00 0.00 0.00 38 1017.0
20260503235452 26 192 6.4 8.0 0.00 0.00 0.00 37 1016.9
20260503234949 26 156 11.3 14.5 0.00 0.00 0.00 37 1017.0
20260503234446 26 184 9.7 11.3 0.00 0.00 0.00 37 1017.1
20260503233944 26 190 3.2 4.8 0.00 0.00 0.00 37 1017.0
20260503233440 26 201 3.2 4.8 0.00 0.00 0.00 37 1017.1
20260503232937 26 189 12.9 16.1 0.00 0.00 0.00 37 1017.5
20260503232434 26 190 0.0 1.6 0.00 0.00 0.00 38 1017.2
20260503231932 26 210 6.4 9.7 0.00 0.00 0.00 37 1017.3
20260503231429 26 193 1.6 3.2 0.00 0.00 0.00 37 1017.4
20260503230925 26 196 12.9 20.9 0.00 0.00 0.00 35 1017.2
20260503230422 27 213 12.9 14.5 0.00 0.00 0.00 35 1017.2
20260503225920 27 195 8.0 11.3 0.00 0.00 0.00 36 1017.2
20260503225416 27 152 11.3 20.9 0.00 0.00 0.00 36 1017.2
20260503224912 27 155 6.4 11.3 0.00 0.00 0.00 35 1017.5
20260503224409 27 180 4.8 8.0 0.00 0.00 0.00 35 1017.1
20260503223907 27 201 3.2 8.0 0.00 0.00 0.00 34 1017.3
20260503223405 27 190 6.4 9.7 0.00 0.00 0.00 33 1017.5
20260503222859 27 204 4.8 8.0 0.00 0.00 0.00 33 1017.6
20260503222358 27 176 9.7 16.1 0.00 0.00 0.00 33 1017.5
20260503221856 27 225 9.7 16.1 0.00 0.00 0.00 34 1017.6
20260503221355 27 207 3.2 4.8 0.00 0.00 0.00 34 1017.7
20260503220850 27 189 3.2 3.2 0.00 0.00 0.00 34 1017.7
20260503220347 28 200 3.2 4.8 0.00 0.00 0.00 34 1017.7
20260503215844 28 160 6.4 9.7 0.00 0.00 0.00 33 1017.8
20260503215341 28 183 12.9 14.5 0.00 0.00 0.00 33 1017.6
20260503214839 27 153 0.0 1.6 0.00 0.00 0.00 35 1017.8
20260503214336 28 187 9.7 14.5 0.00 0.00 0.00 34 1018.1
20260503213833 28 221 6.4 11.3 0.00 0.00 0.00 34 1018.1
20260503213331 27 123 4.8 4.8 0.00 0.00 0.00 33 1018.1
20260503212827 27 201 9.7 16.1 0.00 0.00 0.00 34 1018.1
20260503212326 28 197 4.8 4.8 0.00 0.00 0.00 33 1018.1
20260503211823 28 209 1.6 1.6 0.00 0.00 0.00 34 1018.5
20260503211319 28 222 3.2 3.2 0.00 0.00 0.00 35 1018.3
20260503210819 28 180 11.3 12.9 0.00 0.00 0.00 32 1018.3
20260503210317 28 146 9.7 11.3 0.00 0.00 0.00 32 1018.5
20260503205812 28 171 4.8 4.8 0.00 0.00 0.00 33 1018.6
20260503205309 28 145 1.6 3.2 0.00 0.00 0.00 33 1018.8
20260503204805 28 178 3.2 4.8 0.00 0.00 0.00 33 1018.9
20260503204303 28 174 4.8 4.8 0.00 0.00 0.00 31 1018.8
20260503203800 28 174 4.8 4.8 0.00 0.00 0.00 33 1018.9
20260503203257 28 166 3.2 8.0 0.00 0.00 0.00 32 1019.2
20260503202754 28 170 4.8 9.7 0.00 0.00 0.00 31 1019.2
20260503202252 28 222 3.2 3.2 0.00 0.00 0.00 33 1019.4
20260503201750 28 187 3.2 3.2 0.00 0.00 0.00 34 1019.3
20260503201247 28 144 4.8 8.0 0.00 0.00 0.00 33 1019.5
20260503200744 28 177 1.6 4.8 0.00 0.00 0.00 35 1019.6
20260503200240 28 218 1.6 3.2 0.00 0.00 0.00 34 1019.7
20260503195737 28 254 4.8 9.7 0.00 0.00 0.00 34 1019.8
20260503195233 28 115 4.8 8.0 0.00 0.00 0.00 34 1019.8
20260503194732 28 232 1.6 3.2 0.00 0.00 0.00 34 1020.1
20260503194227 28 204 1.6 3.2 0.00 0.00 0.00 33 1019.9
20260503193723 28 213 0.0 1.6 0.00 0.00 0.00 36 1020.1
20260503193219 28 153 4.8 9.7 0.00 0.00 0.00 34 1020.3
20260503192715 27 134 3.2 4.8 0.00 0.00 0.00 34 1020.2
20260503192210 28 186 3.2 3.2 0.00 0.00 0.00 35 1020.5
20260503191708 28 230 1.6 3.2 0.00 0.00 0.00 36 1020.5
20260503191205 28 204 3.2 4.8 0.00 0.00 0.00 37 1020.5
20260503190701 28 230 1.6 3.2 0.00 0.00 0.00 37 1020.5